User: anonymous   Login
Location: Unspecified
(0.0000°N, 0.0000°E)
Time: 00:05:17
(UTC+00:00)
Language:

DELFI C3 - Orbit

View from above orbital plane
View from above orbital plane
View from above satellite
View from above satellite

Ground track
Ground track

The orbit data is extracted from the following two-line orbital elements,

1 32789U 08021G   17172.87879099 +.00000977 +00000-0 +73243-4 0  9991
2 32789 097.5592 231.0120 0014774 087.0452 273.2465 15.04890179497470
Epoch (UTC): 21 June 2017 21:05:27
Eccentricity: 0.0014774
inclination: 97.5592°
perigee height: 541 km
apogee height: 562 km
right ascension of ascending node: 231.0120°
argument of perigee: 87.0452°
revolutions per day: 15.04890179
mean anomaly at epoch: 273.2465°
orbit number at epoch: 49747

The dashed part of the orbit path shows where the satellite is in the earth's shadow,  

DLR